This is the latest recevied weather packets stored in our database for station/object IONIA-WX. If no packets are shown the sender has not sent any weather packets the latest 10 day(s).
| Time | Temp. | Humidity | Pressure | Rain* | Wind** | Luminosity | Snow |
|---|---|---|---|---|---|---|---|
| 1788286517 | 31.11° C | 61% | 985 hPa | 0 mm | - | - | - |
| 1788285621 | 30.56° C | 61% | 985 hPa | 0 mm | - | - | - |
| 1788284717 | 30.56° C | 69% | 985.2 hPa | 0 mm | - | - | - |
| 1788283817 | 30.56° C | 69% | 985.2 hPa | 0 mm | - | - | - |
| 1788282917 | 30.56° C | 69% | 985.3 hPa | 0 mm | - | - | - |
| 1788282015 | 30° C | 69% | 985.3 hPa | 0 mm | - | - | - |
| 1788281116 | 30° C | 73% | 985.5 hPa | 0 mm | - | - | - |
| 1788280217 | 30° C | 71% | 984.8 hPa | 0 mm | - | - | - |
| 1788279316 | 29.44° C | 71% | 984.8 hPa | 0 mm | - | - | - |
| 1788278417 | 28.89° C | 71% | 984.8 hPa | 0 mm | - | - | - |
| 1788277516 | 28.89° C | 76% | 984.5 hPa | 0 mm | - | - | - |
| 1788276615 | 27.78° C | 76% | 984.5 hPa | 0 mm | - | - | - |
| 1788275716 | 27.78° C | 76% | 984.5 hPa | 0 mm | - | - | - |
| 1788274816 | 27.22° C | 76% | 984.5 hPa | 0 mm | - | - | - |
| 1788273915 | 26.67° C | 83% | 984.1 hPa | 0 mm | - | - | - |
| 1788273017 | 26.67° C | 77% | 984.9 hPa | 0 mm | - | - | - |
| 1788272118 | 26.11° C | 78% | 985.7 hPa | 0 mm | - | - | - |
| 1788271217 | 25.56° C | 78% | 985.7 hPa | 0 mm | - | - | - |
| 1788270318 | 25° C | 90% | 984.7 hPa | 0 mm | - | - | - |
| 1788269417 | 24.44° C | 90% | 984.7 hPa | 0 mm | - | - | - |
| 1788268517 | 23.33° C | 90% | 984.7 hPa | 0 mm | - | - | - |
| 1788267619 | 22.78° C | 90% | 984.7 hPa | 0 mm | - | - | - |
| 1788266715 | 21.67° C | 95% | 984.5 hPa | 0 mm | - | - | - |
| 1788265818 | 20.56° C | 94% | 984 hPa | 0 mm | - | - | - |
| 1788264916 | 20.56° C | 94% | 984 hPa | 0 mm | - | - | - |
* Rain latest hour (hover to see other rain measurements)
** Current wind speed in m/s (hover to see current wind gust speed)